Hourly Data Report for December 03, 2019

SAINT JOHN A
NEW BRUNSWICK
Current Station Operator: NAVCAN

45°18'58.000" N
65°53'24.000" W
108.80 m
8104901
71609
YSJ

Download Data

Hourly Data (December 2019)
Hourly Data Report for December 3, 2019
TIME
LST
Temp Definition
°C
Dew Point Definition
°C
Rel Hum Definition
%
Precip. Amount Definition
mm

Wind Dir Definition
10's deg

Wind Spd Definition
km/h
Visibility Definition
km
Stn Press Definition
kPa
Hmdx Definition


Wind Chill Definition


Weather Definition


00:00 -1.4 -5.8 72   4 23 24.1 99.28   -7 LegendNANA
01:00 -1.5 -5.3 76   3 34 24.1 99.08   -9 Freezing Rain
02:00 -1.7 -4.0 84   4 32 16.1 98.98   -9 Freezing Rain
03:00 -1.6 -2.8 91   3 38 16.1 98.84   -9 Freezing Rain
04:00 -1.5 -2.7 92   3 39 16.1 98.69   -9 Freezing Drizzle
05:00 -1.6 -2.8 91   3 41 24.1 98.51   -10 Cloudy
06:00 -1.5 -2.8 91   3 43 24.1 98.34   -10 LegendNANA
07:00 -1.3 -2.4 92   3 35 8.1 98.22   -9 Moderate Freezing Rain,Ice Pellets,Fog
08:00 -1.1 -2.2 93   4 26 2.4 98.14   -7 Freezing Rain,Ice Pellets,Fog
09:00 -0.5 -1.4 94   2 31 3.2 97.92   -7 Freezing Rain,Fog
10:00 -0.1 -1.0 93   3 31 3.2 97.74   -7 Freezing Rain,Fog
11:00 0.3 -0.3 95   3 24 3.2 97.78     Freezing Rain,Fog
12:00 0.5 -0.3 94   3 23 8.1 97.57     Rain,Fog
13:00 0.7 -0.2 94   4 29 8.1 97.50     Rain,Fog
14:00 0.7 -0.1 94   3 28 3.2 97.40     Rain,Fog
15:00 0.6 -0.1 95   3 31 3.2 97.33     Rain,Fog
16:00 0.9 -0.2 93   3 25 4.8 97.32     Fog
17:00 0.8 -0.1 93   2 27 8.1 97.28     Fog
18:00 0.6 -0.2 94   3 23 16.1 97.29     LegendNANA
19:00 0.6 -0.2 94   2 28 16.1 97.17     LegendNANA
20:00 0.5 -0.2 95   36 35 24.1 97.08     Cloudy
21:00 0.4 0.0 97   2 23 4.8 97.06     Fog
22:00 0.2 -0.3 96   36 32 4.8 97.10     Drizzle,Fog
23:00 -0.2 -1.2 93   1 34 8.1 97.06   -7 Fog

Notes on Data Quality.

Legend

  • E = Estimated
  • M = Missing
  • NA = Not Available*
  • [empty] = Indicates an unobserved value
Date modified: